Regional Weather Roundup
Issued by NWS

Home | Current Version | Previous Version | Text Only | Print | Product List | Glossary On
Versions: 1 2 3 4 5 6 7 8 9 10 11 12 13 14 15 16 17 18 19 20 21 22 23 24 25 26 27 28 29 30 31 32 33 34 35 36 37 38 39 40 41 42 43 44 45 46 47 48 49 50
000
ASUS44 KLUB 231101
RWRTX
WEST TEXAS WEATHER ROUNDUP
NATIONAL WEATHER SERVICE LUBBOCK TX
600 AM CDT SAT MAY 23 2015

NOTE: "FAIR" INDICATES FEW OR NO CLOUDS BELOW 12,000 FEET WITH NO
SIGNIFICANT WEATHER AND/OR OBSTRUCTIONS TO VISIBILITY.

TXZ004-006>008-010-012-014-016-OKZ002-231200-
TEXAS PANHANDLE/OKLAHOMA PANHANDLE

CITY           SKY/WX    TMP DP  RH WIND       PRES   REMARKS
AMARILLO       TSTM      51  50  96 N12G23    30.07R FOG
BORGER         TSTM      56  54  93 SW12G38   30.08R FOG
DALHART        TSTM      55  52  89 NE14      30.03F FOG
GUYMON         TSTM      57  57 100 S6        30.01R FOG
$$

TXZ026-029-035-045-048-231200-
SOUTHERN PANHANDLE/SOUTH PLAINS/ROLLING PLAINS

CITY           SKY/WX    TMP DP  RH WIND       PRES   REMARKS
CHILDRESS      FOG       61  61 100 SE12      30.01F VSB 1/4
LUBBOCK        LGT RAIN  66  65  96 SE22      29.95F
$$

TXZ052-054-060>062-072-078-127-140-154-169-231200-
PERMIAN BASIN/CONCHO VALLEY/BIG COUNTRY/EDWARDS PLATEAU

CITY           SKY/WX    TMP DP  RH WIND       PRES   REMARKS
ABILENE        MOCLDY    72  68  87 SE20G25   30.02R
JUNCTION       LGT RAIN  71  67  87 SE9       29.98F
MIDLAND        CLOUDY    68  64  87 SE8       29.95S
ODESSA         MOCLDY    67  63  87 SE8       29.95F
SAN ANGELO     CLOUDY    74  68  81 SE8       29.97S
WINK           CLEAR     68  62  81 SE9       29.90F
$$

TXZ055-058-074-075-080-082-231200-
FAR WEST/SOUTHWEST MOUNTAINS/TRANS PECOS

CITY           SKY/WX    TMP DP  RH WIND       PRES   REMARKS
DRYDEN           N/A     72  66  81 S9        29.93F
EL PASO        CLOUDY    69  24  18 N6        29.97R
FORT STOCKTON  CLOUDY    73  55  53 S20G28    29.93S
GUADALUPE PASS CLEAR     58  56  93 W12       30.06R
MARFA          MOCLDY    61  55  82 SE9       30.09F
$$

TXZ014-016-019-021>030-083-231200
TEXAS TECH WEST TEXAS MESONET/TEXAS PANHANDLE/NORTHERN SOUTH PLAINS

CITY           SKY/WX    TMP DP  RH WIND       PRES   REMARKS
ABERNATHY 5ENE   N/A     65  63  95 SE21      29.98F
AMARILLO 9NNE  LGT RAIN  51  50  99 N8        30.06R
AMARILLO 7SSE  LGT RAIN  51  50  99 N16       30.05R
AMHERST 1NE      N/A     64  63  98 SE15      29.95S
BOOTLEG 11WNW    N/A     49  49  98 NE15      30.00F
CANADIAN 6E      N/A     56  56 100 E10       30.02R
CAPROCK CYN SP   N/A     58  58 100 SE3       30.01S
CHILDRESS 2NNE   N/A     60  59  96 E13       30.00F
CLARENDON 2WSW LGT RAIN  57  56  95 SE13      30.00S
CLAUDE 12SW      N/A     55  55 100 SE9       30.02S
DIMMITT 2NE      N/A     62  62  97 SE17G26   29.99R
FLOYDADA 2NNE    N/A     64  64  98 SE17      29.98F
FRIONA 2NE       N/A     51  50  95 NE12      30.03R
GOODLETT 3W      N/A     62  60  94 E9        30.01F
HART 3N          N/A     64  63  97 SE17G29   29.98R
HEREFORD 2NW   RAIN      52  50  95 N15       30.02S
MCLEAN 1E        N/A     53  52  98 SE13      30.00R
MEMPHIS 1NE      N/A     59  58  97 E8        30.01S
MULESHOE 2SSW    N/A     64  62  93 S17       29.95R
OLTON 6S         N/A     64  62  94 SE21      29.95R
PALO DURO SP     N/A     53  52  97 NW13      30.07R
PAMPA 2E         N/A     55  54  98 SE16      30.02R
PLAINVIEW 1S     N/A     64  64  98 SE15G26   29.96F
SILVERTON 7ESE   N/A     57  56  98 E13       30.01S
TULIA 2ENE       N/A     59  59  98 SE16      29.98F
UMBARGER 3NNE  LGT RAIN  52  51  99 N17       30.03F
$$

TXZ033>036-039>041-045>048-231200
TEXAS TECH WEST TEXAS MESONET/SOUTH PLAINS

CITY           SKY/WX    TMP DP  RH WIND       PRES   REMARKS
AIKEN 3WSW       N/A     64  64 100 SE15      29.99F
ANDREWS 2NE      N/A     66  63  88 SE8       29.96S
ANTON 6SSW       N/A     65  63  95 SE18      29.95F
BROWNFIELD 2S    N/A     64  63  95 SE16      29.96F
DENVR CTY 7WNW   N/A     64  62  95 SE13      29.96S
GAIL 2ESE        N/A     67  65  94 SE8       29.97F
LAMESA 2SE       N/A     67  65  91 SE13      29.97F
LEVELLAND 4S     N/A     65  62  92 SE17      29.96S
LUBBOCK 3WNW     N/A     66  64  95 SE14G24   29.96F
MORTON 1ENE      N/A     64  63  95 SE21      29.94F
ODONNELL 1N      N/A     66  63  92 SE16      29.96F
PLAINS 3N        N/A     65  63  94 SE17      29.97R
RALLS 1SE        N/A    N/A N/A N/A SE20      29.98F
REESE CENTER     N/A     65  63  95 SE21      29.96F
SEAGRAVES 1SW    N/A     65  64  96 SE10      29.96S
SEMINOLE 2NNE    N/A     65  63  93 SE12      29.96S
SLATON 2NE       N/A     65  65  97 SE15      29.98S
SNYDER 3E        N/A     69  67  93 SE12      30.00R
SUNDOWN 8SW      N/A     64  63  96 SE20      29.96R
TAHOKA 3NNE      N/A     66  65  96 SE16      29.97S
WOLFFORTH 6SSW   N/A     65  65  97 SE17      29.96F
$$

TXZ031-032-036>038-042>044-231200-
TEXAS TECH WEST TEXAS MESONET/ROLLING PLAINS

CITY           SKY/WX    TMP DP  RH WIND       PRES   REMARKS
ASPERMONT 3NE    N/A     68  67  96 E6        30.00S
FLUVANNA 3WNW    N/A     68  65  91 SE12      29.99F
GRAHAM 5SSW      N/A     66  65  96 SE13      29.96S
GUTHRIE 10WSW    N/A     65  64  96 E7        29.99F
HASKELL 1NW      N/A     68  67  94 SE9       30.01R
JAYTON 1SSE      N/A     67  66  95 E10       29.98F
KNOX CITY 3NW    N/A     67  64  90 E8        30.02S
LK A HENRY 1NW   N/A     67  67  99 E6        29.97F
ODELL 4ENE       N/A     61  61 100 E9        30.03F
PADUCAH 10SW     N/A     63  62  97 SE12      30.00S
POST 1NE         N/A     68  66  93 SE9       29.96F
SEYMOUR 3NW      N/A     67  65  93 SE12      30.02S
SPUR 1W          N/A     67  65  96 SE8       29.98F
WEINERT 2NNE     N/A     67  66  98 E7        30.02S
WHITE RVR 6NE    N/A     66  65  97 E14       29.97F
$$

TXZ052-054-060>062-072-078-127-140-154-169-231200-
TEXAS TECH WEST TEXAS MESONET/PERMIAN BASIN/
CONCHO VALLEY/BIG COUNTRY/EDWARDS PLATEAU

CITY           SKY/WX    TMP DP  RH WIND       PRES   REMARKS
COYANOSA 2N      N/A     67  60  78 S8        29.92S
JUNCTION 1SSW    N/A     70  67  91 SE6       30.00F
MERTZON 3NNE     N/A     73  68  86 S9        30.00R
SAN ANGELO 7NW   N/A     71  67  84 SE5       29.99R
STRLNG CT 4WSW   N/A     71  68  88 SE9       29.99R
ST LAWRNCE 5SW   N/A     70  66  87 SE15      29.98R
SWEETWATR 11SW   N/A     70  68  92 SE16      30.01R
WALL 1E          N/A     73  66  80 SE18      29.97F
$$

TXZ055-058-074-075-080-082-231200-
TEXAS TECH WEST TEXAS MESONET/FAR WEST/SOUTHWEST MOUNTAINS/TRANS PECOS

CITY           SKY/WX    TMP DP  RH WIND       PRES   REMARKS
PRSMN GAP BBNP   N/A     70  60  68 S10       30.01R
$$


USA.gov is the U.S. government's official web portal to all federal, state and local government web resources and services.